Location: Cluj-Napoca
(46.7712°N, 23.6236°E)
Time: 18:48:03
(UTC+03:00)

ISS - Pass Details

Date: 25 May 2020
Orbit: 417 x 420 km, 51.6° (Epoch: 26 May)

Event Time Altitude Azimuth Distance (km) Brightness Sun altitude
Rises 00:09:19 0° 295° (WNW) 2,369 0.7 -20.3°
Reaches altitude 10° 00:11:25 10° 297° (WNW) 1,503 -0.4 -20.4°
Enters shadow 00:14:42 80° 346° (NNW) 431 -3.7 -20.5°
